FW9304 Weather Reports


Display with metric or nautical units.
time (UTC)temp
F
wind
direction
speed
MPH
gust
MPH
rain 1hr
in
rain 24hr
in
rain mn
in
humidity
%
barometer
mb
20260506134343 46 165 0.0 1.0 0.00 0.00 0.00 99 1016.4
20260506133840 46 7 0.0 0.0 0.00 0.00 0.00 99 1016.4
20260506133337 46 7 0.0 0.0 0.00 0.00 0.00 99 1016.5
20260506132833 46 7 0.0 0.0 0.00 0.00 0.00 99 1016.5
20260506132331 46 7 0.0 0.0 0.00 0.00 0.00 99 1016.4
20260506131829 46 7 0.0 0.0 0.00 0.00 0.00 99 1016.4
20260506131325 46 7 0.0 0.0 0.00 0.00 0.00 99 1016.2
20260506130822 46 7 0.0 0.0 0.00 0.00 0.00 99 1016.2
20260506130318 46 7 0.0 0.0 0.00 0.00 0.00 99 1016.1
20260506125816 46 15 0.0 1.0 0.00 0.00 0.00 99 1016.2
20260506125314 46 180 0.0 0.0 0.00 0.00 0.00 99 1016.0
20260506124813 46 194 0.0 1.0 0.00 0.00 0.00 99 1016.2
20260506124309 46 180 0.0 0.0 0.00 0.00 0.00 99 1016.3
20260506123807 46 180 0.0 0.0 0.00 0.00 0.00 99 1016.1
20260506123305 46 180 0.0 1.0 0.00 0.00 0.00 99 1016.3
20260506122802 46 195 0.0 0.0 0.00 0.00 0.00 99 1016.1
20260506122259 46 195 0.0 0.0 0.00 0.00 0.00 99 1016.1
20260506121757 46 195 0.0 0.0 0.00 0.00 0.00 99 1016.0
20260506121254 46 195 0.0 0.0 0.00 0.00 0.00 99 1016.1
20260506120751 46 195 0.0 0.0 0.00 0.00 0.00 99 1016.0
20260506120249 46 195 0.0 0.0 0.00 0.00 0.00 99 1015.8
20260506115746 46 195 0.0 0.0 0.00 0.00 0.00 99 1015.9
20260506115244 46 195 0.0 0.0 0.00 0.00 0.00 99 1015.9
20260506114742 46 195 0.0 0.0 0.00 0.00 0.00 99 1015.6
20260506114239 46 195 0.0 0.0 0.00 0.00 0.00 99 1015.8
20260506113737 46 195 0.0 0.0 0.00 0.00 0.00 99 1015.6
20260506113234 46 195 0.0 0.0 0.00 0.00 0.00 99 1015.5
20260506112731 46 195 0.0 0.0 0.00 0.00 0.00 99 1015.8
20260506112228 46 195 0.0 0.0 0.00 0.00 0.00 99 1015.6
20260506111726 46 195 0.0 0.0 0.00 0.00 0.00 99 1015.8
20260506111224 46 195 0.0 0.0 0.00 0.00 0.00 99 1015.5
20260506110721 46 195 0.0 0.0 0.00 0.00 0.00 99 1015.4
20260506110218 46 195 0.0 0.0 0.00 0.00 0.00 99 1015.5
20260506105714 46 195 0.0 0.0 0.00 0.00 0.00 99 1015.6
20260506105211 46 195 0.0 0.0 0.00 0.00 0.00 99 1015.4
20260506104710 46 195 0.0 0.0 0.00 0.00 0.00 99 1015.4
20260506104207 46 342 0.0 0.0 0.00 0.00 0.00 99 1015.2
20260506103703 46 342 0.0 0.0 0.00 0.00 0.00 99 1015.3
20260506103201 46 342 0.0 0.0 0.00 0.00 0.00 99 1015.3
20260506102659 46 342 0.0 0.0 0.00 0.00 0.00 99 1015.2
20260506102156 46 342 0.0 0.0 0.00 0.00 0.00 99 1015.3
20260506101653 46 342 0.0 0.0 0.00 0.00 0.00 99 1015.0
20260506101149 46 342 0.0 0.0 0.00 0.00 0.00 99 1014.9
20260506100648 46 342 0.0 0.0 0.00 0.00 0.00 99 1015.1
20260506100146 46 342 0.0 0.0 0.00 0.00 0.00 99 1015.0
20260506095644 46 342 0.0 0.0 0.00 0.00 0.00 99 1015.1
20260506095140 46 342 0.0 0.0 0.00 0.00 0.00 99 1015.1
20260506094638 46 342 0.0 0.0 0.00 0.00 0.00 99 1015.0
20260506094135 46 342 0.0 0.0 0.00 0.00 0.00 99 1015.0
20260506093634 46 342 0.0 0.0 0.00 0.00 0.00 99 1015.0
20260506093131 46 342 0.0 0.0 0.00 0.00 0.00 99 1015.1
20260506092628 46 342 0.0 0.0 0.00 0.00 0.00 99 1015.0
20260506092125 46 342 0.0 0.0 0.00 0.00 0.00 99 1015.2
20260506091623 46 0 0.0 0.0 0.00 0.00 0.00 99 1015.0
20260506091121 46 0 0.0 0.0 0.00 0.00 0.00 99 1015.1
20260506090619 46 0 0.0 0.0 0.00 0.00 0.00 99 1015.2
20260506090114 46 0 0.0 0.0 0.00 0.00 0.00 99 1015.1
20260506085611 46 345 0.0 0.0 0.00 0.00 0.00 99 1015.1
20260506085108 46 345 0.0 1.0 0.00 0.00 0.00 99 1015.3
20260506084605 46 180 0.0 0.0 0.00 0.00 0.00 99 1015.0
20260506084101 46 180 0.0 0.0 0.00 0.00 0.00 99 1015.1
20260506083558 46 180 0.0 0.0 0.00 0.00 0.00 99 1014.9
20260506083055 46 180 0.0 0.0 0.00 0.00 0.00 99 1015.3
20260506082552 46 180 0.0 0.0 0.00 0.00 0.00 99 1015.1
20260506082048 46 180 0.0 0.0 0.00 0.00 0.00 99 1015.0
20260506081546 46 180 0.0 0.0 0.00 0.00 0.00 99 1015.2
20260506081043 46 180 0.0 0.0 0.00 0.00 0.00 99 1015.1
20260506080541 46 180 0.0 0.0 0.00 0.00 0.00 99 1015.0
20260506073524 46 180 0.0 0.0 0.00 0.00 0.00 99 1014.9
20260506073021 46 180 0.0 0.0 0.00 0.00 0.00 99 1015.2
20260506072519 46 180 0.0 2.0 0.00 0.00 0.00 99 1015.1
20260506072016 46 203 0.0 0.0 0.00 0.00 0.00 99 1015.0
20260506071514 46 203 0.0 0.0 0.00 0.00 0.00 99 1014.7
20260506071011 46 203 0.0 0.0 0.00 0.00 0.00 99 1014.9
20260506070508 46 203 0.0 0.0 0.00 0.00 0.00 99 1014.7
20260506062445 46 346 0.0 0.0 0.00 0.12 0.12 99 1014.3
20260506061941 46 346 0.0 0.0 0.00 0.12 0.12 99 1014.4
20260506061438 46 173 0.0 0.0 0.00 0.12 0.12 99 1014.4
20260506060936 46 173 0.0 0.0 0.00 0.12 0.12 99 1014.4
20260506060434 46 173 0.0 0.0 0.00 0.12 0.12 99 1014.1
20260506051406 46 206 0.0 0.0 0.00 0.12 0.12 99 1013.6
20260506050903 46 206 0.0 0.0 0.00 0.12 0.12 99 1014.0
20260506050400 46 206 0.0 0.0 0.00 0.12 0.12 99 1014.1
20260506044851 46 334 0.0 0.0 0.00 0.12 0.12 99 1013.6
20260506044349 46 334 0.0 2.0 0.00 0.12 0.12 99 1013.7
20260506043845 46 334 1.0 2.0 0.07 0.12 0.12 99 1014.0
20260506043343 46 203 0.0 0.0 0.07 0.12 0.12 99 1013.8
20260506042841 46 203 1.0 1.0 0.00 0.11 0.11 99 1013.6
20260506042340 46 340 0.0 0.0 0.00 0.11 0.11 99 1013.5
20260506041838 46 340 0.0 0.0 0.00 0.11 0.11 99 1013.6
20260506041335 46 346 1.0 1.0 0.00 0.11 0.11 99 1013.4
20260506040832 46 340 0.0 0.0 0.00 0.11 0.11 99 1013.2
20260506040329 46 234 0.0 0.0 0.00 0.11 0.11 99 1013.2
20260506035825 46 234 0.0 0.0 0.00 0.11 0.11 99 1013.4
20260506035323 46 234 0.0 1.0 0.00 0.11 0.11 99 1013.3
20260506034820 46 331 0.0 2.0 0.00 0.11 0.11 99 1013.3
20260506034317 46 246 0.0 0.0 0.00 0.11 0.11 99 1012.9
20260506033814 46 340 0.0 2.0 0.00 0.11 0.11 99 1013.1
20260506033311 46 261 0.0 0.0 0.00 0.11 0.11 99 1013.1
20260506032808 47 240 0.0 1.0 0.00 0.11 0.11 99 1012.7
20260506032306 46 340 0.0 3.0 0.00 0.11 0.11 99 1012.6
20260506031801 46 8 0.0 0.0 0.00 0.11 0.11 99 1012.4
20260506031259 47 8 0.0 0.0 0.00 0.11 0.11 99 1012.5
20260506030757 47 8 0.0 0.0 0.00 0.11 0.11 99 1012.5
20260506030254 47 8 0.0 0.0 0.00 0.11 0.11 99 1012.5
20260506025751 47 10 2.0 2.0 0.00 0.11 0.11 99 1012.6
20260506025247 47 352 0.0 0.0 0.00 0.11 0.11 99 1012.3
20260506024744 47 352 0.0 0.0 0.00 0.11 0.11 99 1012.6
20260506024241 47 352 0.0 0.0 0.00 0.11 0.11 99 1012.5
20260506023737 47 331 0.0 0.0 0.00 0.11 0.11 99 1012.3
20260506023234 47 331 0.0 0.0 0.00 0.11 0.11 99 1012.3
20260506022731 47 331 0.0 0.0 0.00 0.11 0.11 99 1012.4
20260506022229 47 331 0.0 2.0 0.00 0.11 0.11 99 1012.2
20260506021727 47 162 1.0 2.0 0.00 0.11 0.11 99 1012.2
20260506021223 47 345 0.0 2.0 0.00 0.11 0.11 99 1012.3
20260506020720 46 352 0.0 0.0 0.00 0.11 0.11 99 1011.9
20260506020218 46 14 0.0 0.0 0.00 0.11 0.11 99 1011.9
20260506015715 46 14 0.0 1.0 0.00 0.11 0.11 99 1012.2
20260506015213 46 15 0.0 0.0 0.00 0.11 0.11 99 1012.2
20260506014710 46 15 0.0 0.0 0.00 0.11 0.11 99 1012.0
20260506014206 46 270 0.0 0.0 0.00 0.11 0.11 99 1012.3
20260506013703 47 270 0.0 1.0 0.00 0.11 0.11 99 1012.4
20260506013200 47 352 0.0 1.0 0.00 0.11 0.11 99 1012.3
20260506012656 47 345 0.0 0.0 0.00 0.11 0.11 99 1012.0
20260506012153 47 337 0.0 0.0 0.00 0.11 0.11 99 1012.2
20260506011651 47 337 0.0 1.0 0.00 0.11 0.11 99 1012.0
20260506011147 47 337 0.0 0.0 0.00 0.11 0.11 99 1011.8
20260506010646 47 337 1.0 1.0 0.00 0.11 0.11 99 1012.0
20260506010143 46 0 0.0 0.0 0.00 0.11 0.11 99 1011.6
20260506005639 46 0 0.0 0.0 0.00 0.11 0.11 99 1011.6
20260506005136 46 0 0.0 0.0 0.00 0.11 0.11 99 1011.8
20260506004632 46 0 0.0 0.0 0.00 0.11 0.11 99 1011.7
20260506004130 46 0 0.0 0.0 0.00 0.11 0.11 99 1011.7
20260506003626 46 0 0.0 0.0 0.00 0.11 0.11 99 1011.8
20260506003122 46 0 0.0 0.0 0.00 0.11 0.11 99 1011.7
20260506002618 46 0 0.0 0.0 0.00 0.11 0.11 99 1011.8
20260506002114 46 278 0.0 0.0 0.00 0.11 0.11 99 1011.8
20260506001610 46 278 0.0 0.0 0.00 0.11 0.11 99 1011.6
20260506001108 46 294 1.0 1.0 0.00 0.11 0.11 99 1011.8
20260506000605 46 331 0.0 2.0 0.00 0.11 0.11 99 1011.7
20260505235601 46 355 0.0 2.0 0.00 0.11 0.11 99 1011.6
20260505235057 46 0 2.0 4.0 0.00 0.11 0.11 99 1011.5
20260505234554 46 337 0.0 1.0 0.00 0.11 0.11 99 1011.5
20260505234050 46 6 0.0 0.0 0.00 0.11 0.11 99 1011.5
20260505233549 46 6 0.0 1.0 0.00 0.11 0.11 99 1011.5
20260505233046 46 356 2.0 2.0 0.00 0.11 0.11 99 1011.4
20260505232543 46 0 0.0 2.0 0.00 0.11 0.11 99 1011.7
20260505232041 46 0 0.0 1.0 0.00 0.11 0.11 99 1011.5
20260505231537 46 325 0.0 2.0 0.00 0.11 0.11 99 1011.4
20260505231036 46 240 1.0 2.0 0.00 0.11 0.11 99 1011.6
20260505230533 46 251 1.0 1.0 0.00 0.11 0.11 99 1011.5
20260505230030 46 353 0.0 2.0 0.00 0.11 0.11 99 1011.5
20260505225526 46 251 1.0 2.0 0.00 0.11 0.11 99 1011.6
20260505225022 46 0 1.0 1.0 0.00 0.11 0.11 99 1011.4
20260505224520 46 354 1.0 2.0 0.00 0.11 0.11 99 1011.4
20260505224017 46 330 0.0 2.0 0.00 0.11 0.11 99 1011.7
20260505223514 46 356 2.0 2.0 0.00 0.11 0.11 99 1011.5
20260505223010 46 354 1.0 2.0 0.00 0.11 0.11 99 1011.7
20260505222506 46 7 1.0 1.0 0.00 0.11 0.11 99 1011.5
20260505222002 46 354 0.0 2.0 0.00 0.11 0.11 99 1011.5
20260505221500 46 254 0.0 2.0 0.00 0.11 0.11 99 1011.6
20260505220957 46 300 0.0 1.0 0.00 0.11 0.11 99 1011.5
20260505220453 46 348 0.0 2.0 0.00 0.11 0.11 99 1011.6
20260505215951 46 215 0.0 0.0 0.00 0.11 0.11 99 1011.6
20260505215449 46 209 0.0 2.0 0.00 0.11 0.11 99 1011.6
20260505214947 46 270 0.0 1.0 0.00 0.11 0.11 99 1011.6
20260505214444 46 300 0.0 2.0 0.00 0.11 0.11 99 1011.7
20260505213941 46 343 3.0 3.0 0.00 0.11 0.11 99 1011.6
20260505213439 46 334 0.0 2.0 0.00 0.11 0.11 99 1011.7
20260505212935 46 294 0.0 3.0 0.00 0.11 0.11 99 1011.6
20260505212432 45 338 0.0 6.0 0.00 0.11 0.11 99 1011.7
20260505211928 45 353 1.0 1.0 0.00 0.11 0.11 99 1011.7
20260505211426 45 15 2.0 2.0 0.00 0.11 0.11 99 1011.8
20260505210922 45 340 0.0 1.0 0.00 0.11 0.11 99 1011.9
20260505210420 45 4 2.0 3.0 0.00 0.11 0.11 99 1011.6
20260505205916 45 346 3.0 3.0 0.00 0.11 0.11 99 1011.5
20260505205415 46 294 1.0 2.0 0.00 0.11 0.11 99 1011.7
20260505204911 46 243 0.0 2.0 0.00 0.11 0.11 99 1011.4
20260505204409 46 270 1.0 2.0 0.00 0.11 0.11 99 1011.6
20260505203906 46 283 0.0 1.0 0.00 0.11 0.11 99 1011.3
20260505203402 45 337 0.0 1.0 0.00 0.11 0.11 99 1011.5
20260505202859 45 254 2.0 2.0 0.00 0.11 0.11 99 1011.5
20260505202355 45 0 1.0 3.0 0.00 0.11 0.11 99 1011.5
20260505201852 45 351 3.0 3.0 0.00 0.11 0.11 99 1011.6
20260505201349 45 254 0.0 1.0 0.00 0.11 0.11 99 1011.5
20260505200847 45 0 1.0 2.0 0.00 0.11 0.11 99 1011.3
20260505200344 45 0 0.0 2.0 0.00 0.11 0.11 99 1011.5
20260505195839 45 354 0.0 3.0 0.00 0.11 0.11 99 1011.7
20260505195337 45 0 1.0 3.0 0.00 0.11 0.11 99 1011.1
20260505194834 45 346 1.0 2.0 0.00 0.11 0.11 99 1011.5
20260505194331 45 0 0.0 3.0 0.00 0.11 0.11 99 1011.5
20260505193826 45 348 0.0 1.0 0.00 0.11 0.11 99 1011.5
20260505193324 45 337 0.0 2.0 0.00 0.11 0.11 99 1011.5
20260505192822 45 306 1.0 2.0 0.00 0.11 0.11 99 1011.5
20260505192320 45 324 0.0 2.0 0.00 0.11 0.11 99 1011.3
20260505191817 45 353 1.0 3.0 0.00 0.11 0.11 99 1011.5
20260505191316 45 340 1.0 3.0 0.00 0.11 0.11 99 1011.6
20260505190812 45 262 0.0 2.0 0.00 0.11 0.11 99 1011.4
20260505190308 45 275 0.0 2.0 0.00 0.11 0.11 99 1011.1
20260505185804 45 254 0.0 2.0 0.00 0.11 0.11 99 1011.5
20260505185300 45 344 0.0 2.0 0.00 0.11 0.11 99 1011.1
20260505184756 45 0 0.0 1.0 0.00 0.11 0.11 99 1011.3
20260505184254 45 246 0.0 0.0 0.00 0.11 0.11 99 1011.4
20260505183751 45 286 0.0 1.0 0.00 0.11 0.11 99 1011.3
20260505183248 44 98 0.0 1.0 0.00 0.11 0.11 99 1011.5
20260505182744 45 195 0.0 1.0 0.00 0.11 0.11 99 1011.3
20260505182241 44 180 0.0 0.0 0.00 0.11 0.11 99 1011.3
20260505181737 44 270 0.0 1.0 0.00 0.11 0.11 99 1011.0
20260505181235 44 345 0.0 1.0 0.00 0.11 0.11 99 1011.1
20260505180731 44 346 0.0 2.0 0.00 0.11 0.11 99 1011.1
20260505180228 45 294 0.0 1.0 0.00 0.11 0.11 99 1011.1
20260505175724 44 278 0.0 2.0 0.00 0.11 0.11 99 1010.8
20260505175221 44 6 0.0 1.0 0.00 0.11 0.11 99 1011.3
20260505174718 44 286 0.0 2.0 0.00 0.11 0.11 99 1011.0
20260505174215 44 345 0.0 1.0 0.00 0.11 0.11 99 1010.8
20260505173710 44 346 0.0 3.0 0.00 0.11 0.11 99 1010.9
20260505173207 44 331 0.0 1.0 0.00 0.11 0.11 99 1010.9
20260505172705 44 346 0.0 1.0 0.00 0.11 0.11 99 1010.8
20260505172201 44 7 0.0 1.0 0.00 0.11 0.11 99 1010.7
20260505171701 44 353 0.0 2.0 0.00 0.11 0.11 99 1010.7
20260505171158 44 12 1.0 2.0 0.00 0.11 0.11 99 1010.6
20260505170655 44 289 0.0 0.0 0.00 0.11 0.11 99 1010.5
20260505170152 44 240 0.0 0.0 0.00 0.11 0.11 99 1010.7
20260505165652 44 270 0.0 2.0 0.00 0.11 0.11 99 1010.6
20260505165148 44 354 1.0 1.0 0.00 0.11 0.11 99 1010.6
20260505164644 44 270 0.0 1.0 0.00 0.11 0.11 99 1010.8
20260505164142 44 291 0.0 1.0 0.00 0.11 0.11 99 1010.4
20260505163640 44 0 0.0 1.0 0.00 0.11 0.11 99 1010.6
20260505163138 44 355 1.0 1.0 0.00 0.11 0.11 99 1010.7
20260505162634 44 337 1.0 2.0 0.00 0.11 0.11 99 1010.6
20260505162132 44 0 0.0 0.0 0.00 0.11 0.11 99 1010.6
20260505161629 43 0 0.0 0.0 0.00 0.11 0.11 99 1010.7
20260505161126 43 97 0.0 0.0 0.00 0.11 0.11 99 1010.7
20260505160624 43 97 0.0 0.0 0.00 0.11 0.11 99 1010.6
20260505160121 43 97 0.0 0.0 0.00 0.11 0.11 99 1010.5
20260505153101 43 82 1.0 1.0 0.00 0.11 0.11 99 1010.5
20260505152557 42 90 0.0 1.0 0.00 0.11 0.11 99 1010.4
20260505152053 42 90 0.0 0.0 0.00 0.11 0.11 99 1010.4
20260505151548 42 90 0.0 1.0 0.00 0.11 0.11 99 1010.5
20260505151046 42 20 0.0 1.0 0.00 0.11 0.11 99 1010.5
20260505150542 42 66 0.0 1.0 0.00 0.11 0.11 99 1010.2
20260505140507 40 123 0.0 0.0 0.00 0.11 0.11 99 1009.9